Location: Medlow Airstrip Trail, Medlow Bath NSW 2780, Australia
(33.6682°S, 150.3233°E)
Time: 04:31:05
(UTC+11:00)

Vanguard 1 - Visible Passes

Search period start: 18 October 2019 00:00
Search period end: 28 October 2019 00:00
Orbit: 653 x 3830 km, 34.2° (Epoch: 17 October)

Date Brightness Start Highest point End Pass type
(mag) Time Alt. Az. Time Alt. Az. Time Alt. Az.
18 Oct 14.1 03:05:17 10° NNE 03:13:49 13° NE 03:21:26 10° ENE visible
18 Oct 13.2 05:20:03 10° NNW 05:38:48 39° NNE 05:50:55 10° E visible
19 Oct 13.9 03:21:25 10° N 03:35:20 20° NE 03:46:46 10° ENE visible
19 Oct 13.0 05:40:22 10° NW 06:00:13 48° NNE 06:12:26 10° E visible
20 Oct 13.6 03:40:48 12° N 03:56:45 27° NE 04:10:01 10° E visible
21 Oct 13.4 04:00:54 13° NNW 04:18:10 35° NE 04:32:21 10° E visible
22 Oct 13.9 02:08:11 13° NNE 02:14:29 15° NE 02:24:38 10° ENE visible
22 Oct 13.2 04:20:55 14° NNW 04:39:33 43° NNE 04:54:11 10° E visible
23 Oct 13.8 02:28:07 19° NNE 02:35:47 22° NE 02:49:26 10° E visible
23 Oct 13.0 04:40:50 13° NW 05:00:57 52° NNE 05:15:43 10° E visible
24 Oct 13.6 02:47:57 23° N 02:57:03 30° NE 03:12:35 10° E visible
24 Oct 12.8 05:00:39 12° NW 05:22:23 62° NNE 05:37:04 10° ESE visible
25 Oct 13.4 03:07:42 27° N 03:18:18 38° NE 03:34:55 10° E visible
25 Oct 12.7 05:21:00 10° NW 05:43:52 70° NNE 05:58:17 10° ESE visible
26 Oct 13.9 01:14:40 16° NE 01:14:49 16° NE 01:26:23 10° E visible
26 Oct 13.2 03:27:21 29° NNW 03:39:36 46° NE 03:56:48 10° E visible
27 Oct 13.6 01:34:14 23° NE 01:35:52 24° NE 01:51:05 10° E visible
27 Oct 13.0 03:46:56 29° NNW 04:00:58 55° NNE 04:18:23 10° ESE visible
